STARLINK-34605

Last updated on Sat Jul 19 2025 00:02:08 GMT+0000 (Coordinated Universal Time)

1 64677U 25139P 25199.58335648 .00032776 00000+0 59542-3 0 9990 2 64677 53.1593 138.1417 0001109 93.1435 108.1089 15.49284152 4382
UTC large
Height (km)
Speed (km/s)
/
Latitude / Longitude
Inclination (degrees)
Orbital Period (minutes)
Azimuth
Elevation
Range (km)
Doppler Factor

Next 0 passes for location: London (51.5072 / 0.1276)

Sorry there are no passes over London.